Flag for U.S.A. Weather past 2 weeks in Thousand Oaks, California, U.S.A.

Now
66 °F

Sunny.


Feels Like: 66 °F
Forecast: 56 / 76 °F
Wind: 10 mph from Southwest

Location: Camarillo Airport

Current Time: Jun 2, 2015 at 10:46:53 AM

Latest Report: Jun 2, 2015 at 9:55 AM


Visibility: 10 mi

Pressure: 30.01 "Hg

Humidity: 70%

Dew point: 56 °F

Location of Thousand OaksLocation

Historic Weather in Thousand Oaks — Graph

°F

Thousand Oaks temperature yesterday

Maximum temperature yesterday: 68 °F (at 1:55 PM)
Minimum temperature yesterday: 58 °F (at 1:55 AM)
Average temperature yesterday: 62 °F

Past Weeks' High & Low Weather Summary

 TemperatureHumidityPressure
High71 °F (May 29, 1:55 PM)90% (May 30, 2:55 AM)30.11 "Hg (May 30, 2:55 AM)
Low52 °F (May 28, 3:55 AM)42% (May 21, 3:55 PM)29.90 "Hg (May 30, 6:55 PM)
Average62 °F71%30.00 "Hg
* Reported May 18 9:55 AM — Jun 2 9:55 AM, Thousand Oaks, Weather by CustomWeather, © 2015

Note: Actual official high and low records may vary slightly from our data, if they occured in-between our weather recording intervals... More about our weather records

Advertising

Thousand Oaks weather history for previous 24 hours

 ConditionsComfort  
Time TempWeatherWind HumidityBarometerVisibility
9:55 AM
Tue, Jun 2
66 °FSunny.10 mph70%30.01 "Hg10 mi
8:55 AM67 °FSunny.3 mph66%30.01 "Hg10 mi
7:55 AM63 °FSunny.No wind73%30.01 "Hg10 mi
6:55 AM58 °FSunny.3 mph81%30.01 "Hg10 mi
5:55 AM56 °FClear.No wind87%30.00 "Hg10 mi
4:55 AM56 °FClear.3 mph87%30.00 "Hg10 mi
3:55 AM56 °FPassing clouds.3 mph84%29.99 "Hg10 mi
2:55 AM57 °FClear.No wind81%29.99 "Hg10 mi
1:55 AM59 °FClear.No wind87%29.99 "Hg10 mi
12:55 AM60 °FPassing clouds.5 mph83%30.01 "Hg10 mi
11:55 PM
Mon, Jun 1
60 °FLow clouds.3 mph83%30.01 "Hg10 mi
10:55 PM60 °FPassing clouds.3 mph80%30.01 "Hg10 mi
9:55 PM61 °FClear.3 mph81%30.01 "Hg10 mi
7:55 PM62 °FSunny.6 mph78%30.00 "Hg10 mi
6:55 PM64 °FSunny.8 mph70%29.99 "Hg10 mi
5:55 PM67 °FSunny.9 mph63%29.99 "Hg10 mi
4:55 PM68 °FSunny.8 mph61%30.00 "Hg10 mi
3:55 PM68 °FSunny.12 mph59%30.01 "Hg10 mi
2:55 PM68 °FSunny.12 mph59%30.02 "Hg10 mi
1:55 PM68 °FScattered clouds.10 mph59%30.03 "Hg10 mi
12:55 PM67 °FScattered clouds.7 mph66%30.04 "Hg10 mi
11:55 AM67 °FOvercast.8 mph63%30.04 "Hg8 mi
10:55 AM62 °FOvercast.5 mph75%30.05 "Hg7 mi
Weather by CustomWeather, © 2015

See weather overviewHow to use our weather pages